Regional Weather Roundup
Issued by NWS Wakefield, VA

Home | Current Version | Previous Version | Text Only | Print | Product List | Glossary On
Versions: 1 2 3 4 5 6 7 8 9 10 11 12 13 14 15 16 17 18 19 20 21 22 23 24 25 26 27 28 29 30 31 32 33 34 35 36 37 38 39 40 41 42 43 44 45 46 47 48 49 50
000
ASUS41 KAKQ 242310
RWRAKQ

REGIONAL WEATHER ROUNDUP
NATIONAL WEATHER SERVICE WAKEFIELD VA
600 PM EST MON NOV 24 2014

Note: "fair" indicates few or no clouds below 12,000 feet with no
significant weather and/or obstructions to visibility. * = Denotes
station may not report precipitation (e.g., rain,snow,etc.),
thunder or fog.

VAZ042-051-052>054-056-250000-
NORTHERN VIRGINIA

CITY           SKY/WX    TMP DP  RH WIND       PRES   REMARKS
WASH NATIONAL  CLEAR     63  50  62 S8        29.69R
DULLES         CLEAR     65  52  62 S9        29.68R
FORT BELVOIR   CLEAR     66  53  61 S3        29.69R
QUANTICO       PTCLDY    59  49  69 SW12      29.70R
FREDERICKSBRG* CLEAR     70  55  59 S12G20    29.69R
STAFFORD*      CLEAR     69  52  54 S7        29.73R
WARRENTON      CLEAR     67  58  72 S3        29.69R
CULPEPER*      CLEAR     66  54  63 S5        29.69R
MANASSAS*      NOT AVBL
LEESBURG*      CLEAR     66  55  68 S10       29.67R
WINCHESTER     CLEAR     64  45  48 S7        29.64R
FRONT ROYAL*   CLEAR     64  50  59 SW5       29.64R
LURAY*         CLEAR     63  52  67 SW5       29.67R
$$

VAZ048-049-060>072-079>083-250000-
CENTRAL AND SOUTH CENTRAL VIRGINIA

CITY           SKY/WX    TMP DP  RH WIND       PRES   REMARKS
RICHMOND       PTCLDY    69  60  73 S13       29.73R
CHESTERFIELD*  CLEAR     68  52  56 S9        29.74S
PETERSBURG*    CLEAR     69  62  77 S9        29.76R
HANOVER        CLEAR     69  58  67 S10       29.73S
TAPPAHANNOCK*  CLEAR     69  55  60 S6        29.72F
QUINTON*       PTCLDY    69  61  76 S7        29.72F
CHARLOTTSVILLE CLEAR     66  51  58 S9        29.69R
GORDONSVILLE*  CLEAR     66  53  63 S9G16     29.68S
ORANGE*        CLEAR     68  54  60 S9        29.70S
LOUISA*        CLEAR     68  54  60 S8        29.69S
BUMPASS*       CLEAR     67  55  66 CALM      29.70S
FARMVILLE*     CLEAR     67  55  65 S6        29.73R
CREWE*         PTCLDY    67  58  71 S7        29.74S
FORT PICKETT*  PTCLDY    67  60  80 S12G18    29.75R
CHASE CITY*    PTCLDY    69  63  82 CALM      29.76R
CLARKSVILLE*   PTCLDY    66  61  82 S7        29.76R
SOUTH HILL*    PTCLDY    65  61  86 S8        29.83R
LAWRENCEVILLE* PTCLDY    66  63  88 S7        29.77R
$$

VAZ088>098-250000-
SOUTHEAST VIRGINIA

CITY           SKY/WX    TMP DP  RH WIND       PRES   REMARKS
NORFOLK        MOCLDY    79  64  60 S18G25    29.77S
VIRGINIA BEACH CLOUDY    72  65  78 S15       29.79R
NORFOLK NAVAL  MOCLDY    73  64  73 S16G23    29.81R
WEST POINT*    CLEAR     71  60  69 S7        29.74F
SALUDA*        FAIR      69  62  76 S13G21    29.73S
NEWPORT NEWS   PTCLDY    73  63  70 S14G22    29.76S
LANGLEY AFB    PTCLDY    71  67  89 S18G25    29.77S
FORT EUSTIS    PTCLDY    69  60  73 S10G18    29.76R
WILLIAMSBURG*  PTCLDY    72  64  78 S12       29.77R
HR EXEC AP*    CLOUDY    63  63 100 SW9G22    29.82S
FRANKLIN*      MOCLDY    70  64  83 S16       29.77F
WAKEFIELD      PTCLDY    70  63  78 S10G20    29.75F
$$

VAZ020-022-025-037-045-250000-
WEST CENTRAL AND SOUTHWEST VIRGINIA

CITY           SKY/WX    TMP DP  RH WIND       PRES   REMARKS
STAUNTON*      CLEAR     64  50  61 S9        29.70S
WAYNESBORO*    CLEAR     63  51  64 S12       29.70R
HOT SPRINGS VA CLEAR     58  33  37 W30G38    29.74S
LYNCHBURG      CLEAR     62  51  67 SW9       29.75R
DANVILLE       CLEAR     64  53  67 S3        29.76R
SOUTH BOSTON*  PTCLDY    65  56  71 S6        29.77R
MARTINSVILLE   CLEAR     59  54  82 CALM      29.80R
ROANOKE        CLEAR     64  51  62 S9        29.76R
BLACKSBURG     CLEAR     61  55  82 S6        29.80R
DUBLIN*        CLEAR     61  52  71 SW10G18   29.79R
MARION*        CLEAR     61  38  43 W10       29.82R
HILLSVILLE*    CLEAR     58  52  79 S7        29.81R
RICHLANDS*     CLEAR     64  39  40 SW15G21   29.79R
WISE*          CLEAR     59  34  38 SW10      29.81R
ABINGDON*      CLEAR     65  38  36 W13G20    29.79R
$$

MDZ021>025-VAZ099-100-250000-
SOUTHERN MARYLAND AND THE DELMARVA PENINSULA

CITY           SKY/WX    TMP DP  RH WIND       PRES   REMARKS
PATUXENT RIVER PTCLDY    68  56  65 S12       29.70S
BAY BRIDGE APT   N/A     63  52  67 S12       29.70R
LEONARDTOWN    CLEAR     68  55  64 S8        29.73R
DOVER          CLEAR     67  58  71 S16G24    29.69R
GEORGETOWN     PTCLDY    68  58  70 S12G24    29.74R
EASTON         CLEAR     66  57  72 S12G17    29.74R
CAMBRIDGE      NOT AVBL
SALISBURY      PTCLDY    69  60  73 S9        29.74R
OCEAN CITY     LGT RAIN  62  59  90 SW16G23   29.76S
WALLOPS ISLAND CLOUDY    61  59  93 SW21      29.76R
ACCOMACK*      MOCLDY    64  59  82 S12G17    29.76S
$$

NCZ012>017-030>032-250000-
NORTH CENTRAL AND EASTERN NORTH CAROLINA

CITY           SKY/WX    TMP DP  RH WIND       PRES   REMARKS
ROANOKE RAPIDS MOCLDY    68  63  83 S13       29.78S
RALEIGH        MOCLDY    68  60  75 S13       29.81R
ELIZABETH CITY CLOUDY    72  66  81 S10       29.84R
AHOSKIE*       CLOUDY    68  64  86 S8        29.81R
EDENTON*       CLOUDY    68  65  90 S10       29.85R
CURRITUCK*     CLOUDY    68  65  90 S7        29.84R
KILL DEVIL HLS CLOUDY    66  65  95 S3        29.86R FOG
MANTEO         CLOUDY    62  61  97 S17       29.88R FOG
CAPE HATTERAS  CLOUDY    69  69 100 SW12G20   29.91R FOG
TARBORO*       MOCLDY    70  64  83 S9G16     29.83R
GOLDSBORO      MOCLDY    68  66  94 S6        29.84R
WASHINGTON     CLOUDY    68  64  86 SW9       29.87R
GREENVILLE     MOCLDY    68  64  88 SW8G18    29.87S
NEW BERN       CLOUDY    73  68  84 SW10      29.89R
WILMINGTON     CLOUDY    70  68  93 SW12      29.91R
$$

VAZ048-250000-
ELSEWHERE

CITY           SKY/WX    TMP DP  RH WIND       PRES   REMARKS
HARRISBURG PA  PTCLDY    66  49  54 S13G22    29.61R
BALTIMORE      CLEAR     68  52  56 S8        29.67R
ANNAPOLIS      CLEAR     57  50  77 S7        29.69R
ANDREWS AFB    CLEAR     65  53  64 S12       29.69R
PHILADELPHIA   CLEAR     67  54  63 S14       29.68R
WILDWOOD NJ*   PTCLDY    63  55  77 S15         N/A
HENDERSON NC   PTCLDY    67  59  75 S13       29.79R
GREENSBORO     PTCLDY    66  53  63 S9        29.79R
ROCKY MOUNT    CLOUDY    69  64  84 S13       29.82R
$$

VAZ100-250000-
MARINE

STATION/POSITION TIME  TEMP    WIND        PRES    WAVE   SWELL
                       AIR SEA DIR/SP/G            HT/PER HT/PER
                 (UTC) (F)     (DEG/KT/KT) (MB)    (FT/S) (FT/S)
CAPE MAY NJ      2300   61 51  160/ 11/ 16 1006.6R
LEWES DE         2300   68 50  200/  8/ 12 1006.7R
15NM E FENWICK I 2300   59 54              1007.3R   8/11
OCEAN-CITY-INLET 2300   60 52  230/ 15/ 18 1007.4R
WACHAPREAGUE VA  2300   62 54  220/ 11/ 14 1008.0R
THOMAS POINT MD  2300   57 48  170/ 19/ 20 1006.4R
GOOSES REEF MD   2300   55     190/ 12/ 14 1006.0R
COVE POINT MD    2300   56     180/ 14/ 15 1005.9R
SOLOMONS ISLAND  2300      51                N/A
BISHOPS HEAD MD  2300   60 49  190/ 14/ 17 1006.2R
PINEY POINT MD   2300          220/ 15/ 19   N/A
POTOMAC MD       2300   61     220/  8/  8 1005.9S
CAMBRIDGE MD     2300   64 44  180/  5/  9 1006.0R
LEWISETTA VA     2300   69 49  220/ 12/ 15 1006.0R
RAPPAHANNOCK LGT 2300          180/ 22/ 23 1007.5F
STINGRAY PT      2300   63     210/ 10/ 14 1007.9R
YORK RVR RNG VA  2300   63     200/ 19/ 23 1006.7F
YORKTOWN VA      2300   71 51  200/ 13/ 17 1006.6F
JAMESTOWN VA     2300   67     220/ 12/ 19   N/A
DOMINION TERM VA 2300   66     200/ 17/ 21 1007.7F
KIPTOPEKE VA     2300      56  190/ 14/ 17   N/A
CHES BAY BRIDGE  2300   69 52  180/ 18/ 21 1007.9F
CAPE HENRY VA    2300   71     190/ 10/ 15 1007.8S
CHESAPEAKE LGHT  2200   63     190/ 28/ 29 1008.6R
WILLOUBY STN VA  2300   70     190/ 16/ 20 1006.5F
S CRANEY ISL VA  2300          180/ 12/ 17 1007.8F
CAPE HENRY BUOY  2300      56                N/A     5/ 9   2/11
1ST LANDING BUOY 2300   65     200/ 14/ 19 1008.7R
CAPE CHARLES BUO 2300      55                N/A     5/ 9   3/ 9
64NM E OF VA BCH 2300   67 62  190/ 17/ 19 1010.8R   7/ 9   5/ 9
DUCK PIER NC     2300   67 57  200/ 13/ 18 1010.0S
44100 DUCK FRF   2300      59                N/A     5/ 9   2/11
44056 DUCK FRF   2300      58                N/A     4/10   2/11
OREGON INLET NC  2300   59 57  190/ 12/ 13 1012.1R
HATTERAS NC      2300   70 62  200/  8/ 11 1013.1R
DIAMOND SHLS NC  2300   75     210/ 16/ 19 1013.0R   7/ 9   5/ 9
CAPE LOOKOUT NC  2200   69     210/ 11/ 14 1012.2R
$$



USA.gov is the U.S. government's official web portal to all federal, state and local government web resources and services.